RH
13 14 15 16 15 16 15 14 13 11 9 7 5 4 3 2 2 1 2 1 1 1 1 2 2 2 2 2 3 4 7 10 12 13 13 12 11 11 12 13 11 10 11 11 13 11 14 12 14 18 14 27 49 74 93 87 92 87 74 83 87 84 77 78 80 79 82 72 70 74 70 78 78 76 79 82 85 84 85 84 77 82 81 57 41 42 42 40
9 10 11 12 12 13 14 14 14 13 12 10 8 6 4 3 2 1 2 1 1 1 1 2 1 2 2 2 2 2 4 7 9 12 13 12 11 11 12 13 12 10 10 10 10 9 11 9 13 15 14 42 68 80 88 84 89 77 68 83 85 85 84 79 72 72 79 70 71 78 72 73 77 76 77 81 85 84 85 87 85 89 84 54 37 42 41 38
6 6 6 7 8 9 10 12 12 12 12 11 10 8 6 4 3 2 1 1 2 1 1 1 1 2 1 2 2 1 3 4 6 9 11 12 12 12 11 13 13 10 9 8 8 7 10 14 15 13 24 60 82 84 82 83 88 75 71 84 82 83 85 78 71 72 75 68 69 77 77 79 83 80 77 81 85 90 93 91 91 85 68 45 39 42 41 41
7 6 6 5 5 5 6 7 8 9 10 10 10 9 8 6 4 3 1 2 1 1 2 1 1 1 1 2 1 3 2 1 5 6 9 11 12 13 11 14 14 11 9 8 9 6 12 28 26 22 40 65 77 81 80 81 84 76 74 80 78 77 79 74 66 67 69 70 72 73 79 85 85 82 78 78 84 92 95 94 87 66 49 41 39 40 41 40
10 9 8 7 6 5 5 4 5 6 6 7 8 8 8 7 5 3 2 2 1 2 1 1 2 0 2 1 1 2 -1 10 16 5 6 9 10 13 12 15 15 12 10 7 9 7 15 39 42 34 47 63 69 72 73 76 78 77 76 76 74 74 75 71 63 64 69 74 76 74 80 82 78 82 80 76 86 90 90 96 81 53 43 39 36 38 40 38
12 10 9 9 7 7 6 5 5 4 4 4 5 6 6 7 6 4 3 2 1 2 1 2 1 0 2 -0 2 1 1 26 33 11 7 9 8 12 12 15 16 13 11 8 8 8 19 41 48 41 46 59 65 65 65 69 74 76 77 72 70 71 69 65 60 60 66 71 72 78 83 76 72 84 83 74 84 91 90 94 79 57 46 36 34 37 38 36
11 9 8 8 7 8 7 6 7 5 5 4 3 4 4 6 5 5 4 2 2 2 1 2 1 1 2 -0 3 0 0 21 27 16 14 9 6 10 12 14 15 14 11 9 6 13 27 38 44 42 45 54 60 62 60 64 72 74 74 71 70 69 63 58 55 54 63 70 71 81 84 76 77 83 80 79 86 90 91 92 77 62 48 35 33 34 34 31
9 8 8 8 7 8 7 8 7 7 7 5 5 3 3 4 4 5 3 3 2 1 2 1 2 2 0 2 1 0 10 17 11 13 16 12 7 7 11 13 15 14 12 9 6 23 36 33 37 39 42 50 54 57 57 61 67 70 71 71 70 67 61 53 50 55 60 65 72 83 83 78 83 79 73 82 90 87 90 90 73 62 52 37 34 32 28 28
8 8 8 8 8 8 8 8 7 8 7 6 6 4 4 3 3 4 3 4 3 2 2 1 2 1 1 3 -2 8 30 24 8 8 12 13 9 5 9 12 14 14 15 10 7 27 37 30 34 36 40 46 44 44 50 59 61 65 67 65 66 65 60 50 48 56 59 68 79 79 75 75 82 82 75 80 87 86 91 88 69 65 58 42 43 36 22 28
8 8 8 8 9 8 8 8 7 8 7 7 7 5 6 4 3 3 2 4 2 2 2 1 3 1 2 1 -1 23 40 24 11 9 6 10 8 5 7 10 14 14 16 12 8 28 36 30 32 33 37 38 34 35 43 54 56 61 62 61 66 63 56 48 47 53 54 71 80 65 65 75 80 84 82 81 85 87 91 87 73 71 64 56 57 37 26 45
7 6 7 7 8 9 9 8 8 8 7 7 6 6 6 5 5 3 3 3 2 3 2 2 2 -0 3 -0 9 40 45 28 17 8 3 6 7 5 5 9 13 14 16 14 14 31 36 32 32 29 30 31 32 36 40 48 50 52 55 58 61 57 54 48 47 53 51 68 82 68 67 80 81 83 86 84 86 87 89 87 79 75 69 73 65 36 47 72
5 5 5 6 7 8 9 8 8 8 8 8 7 7 6 5 5 3 4 3 2 3 1 2 2 2 3 -2 12 39 45 37 21 9 6 3 5 6 5 6 11 13 17 20 24 33 35 33 32 29 28 30 33 35 37 41 42 44 50 54 53 50 52 47 47 54 54 67 82 76 77 87 85 84 84 84 87 86 88 87 82 78 71 82 72 46 68 81
5 5 5 5 5 7 7 7 8 9 11 10 9 7 6 6 5 4 5 3 3 3 1 3 2 2 1 4 19 24 31 37 19 11 9 1 4 7 4 5 9 12 16 28 33 30 32 34 33 31 31 31 31 32 36 37 37 41 46 49 50 49 49 47 48 52 54 65 76 77 86 89 82 85 83 83 89 84 87 87 83 82 74 84 73 58 82 76
6 5 5 5 5 5 5 6 6 8 11 11 11 9 7 6 4 5 4 3 4 2 2 2 1 4 0 12 27 14 16 28 14 9 8 1 7 9 5 4 6 11 16 30 38 32 31 34 33 33 32 33 31 30 34 36 36 38 39 41 45 48 47 44 48 52 53 64 72 71 82 83 73 81 83 84 90 83 84 85 84 85 78 85 69 60 86 67
5 5 5 5 5 5 4 5 5 6 9 10 11 10 9 8 6 5 4 5 4 3 4 1 2 4 -2 10 24 10 7 15 9 5 6 6 12 15 10 6 7 12 16 24 33 33 31 32 32 31 31 34 32 30 33 35 36 35 33 34 39 45 47 43 46 53 53 61 71 68 74 81 72 72 76 81 87 84 84 82 84 84 80 87 69 63 80 60
4 4 4 3 4 4 4 5 4 5 6 7 9 11 12 10 8 6 5 5 3 3 4 2 4 1 3 22 33 21 7 7 11 7 7 14 19 23 19 12 12 12 13 17 20 22 21 23 25 25 29 31 29 30 32 32 33 32 29 30 35 43 47 45 47 56 57 59 70 72 73 79 78 74 75 80 82 84 85 82 84 82 82 87 74 72 75 59
3 2 2 3 2 2 3 3 4 5 5 5 7 10 12 12 11 10 7 6 5 6 3 3 5 -0 6 23 34 36 19 12 24 19 13 18 24 32 26 13 11 9 10 13 14 15 14 15 18 20 25 28 27 28 30 30 29 29 28 27 33 40 43 44 48 56 60 59 62 67 71 77 78 74 79 87 86 84 85 83 85 82 83 86 77 79 71 56
3 2 3 2 2 3 2 2 3 4 5 5 5 7 12 14 13 10 9 8 6 5 5 4 2 5 15 16 24 37 26 23 35 28 17 20 34 44 33 19 15 10 10 13 14 17 17 17 18 19 21 24 26 26 26 27 26 26 27 25 29 37 40 44 48 51 55 60 61 61 69 76 73 69 78 86 82 83 86 84 84 83 86 87 80 82 73 57
3 3 3 3 4 3 2 3 2 3 5 5 5 5 11 14 17 28 29 14 7 16 29 22 4 15 31 23 23 28 25 35 41 33 24 25 42 47 33 29 26 15 15 19 17 18 21 21 19 20 19 18 21 23 22 23 23 23 24 23 27 33 38 41 45 50 53 58 61 59 65 70 66 68 76 77 74 78 81 77 78 81 86 88 82 82 79 67
3 4 5 5 6 4 4 4 1 3 3 5 7 3 14 26 32 52 47 16 10 29 48 41 15 19 32 26 29 30 33 44 41 39 36 26 35 39 30 33 32 23 22 23 20 20 24 22 19 19 17 16 17 20 22 21 19 20 21 23 26 31 35 37 39 48 53 54 56 57 65 68 62 63 68 70 71 73 74 72 72 78 85 90 84 80 82 77
5 7 9 10 11 8 7 4 2 5 1 6 9 3 25 46 44 53 47 21 18 24 34 41 27 21 27 30 36 38 40 41 35 42 39 27 32 35 33 34 31 28 24 21 21 22 24 22 19 18 17 17 16 18 22 21 18 17 20 24 26 27 31 34 33 37 42 46 52 55 62 68 65 65 64 65 68 68 67 64 63 75 87 91 87 81 84 83
9 12 14 14 14 12 10 6 4 3 1 7 6 6 33 44 34 41 41 31 32 28 28 36 31 24 28 35 39 38 38 31 29 41 38 32 33 31 34 33 28 28 23 19 20 20 23 21 18 19 18 18 17 16 18 20 20 20 22 25 27 27 28 30 29 28 28 33 43 49 57 61 61 65 64 62 65 60 57 59 65 78 86 85 81 81 86 84
14 15 15 15 16 15 12 10 8 6 5 6 7 21 38 24 14 26 26 27 35 36 33 31 28 26 29 38 39 33 32 24 25 40 40 33 32 31 36 33 26 26 21 18 19 18 21 20 18 18 19 18 17 17 18 19 22 24 24 26 30 30 28 27 25 25 22 25 36 43 53 56 55 64 65 60 63 58 53 65 76 75 78 80 73 74 83 85
15 16 16 17 17 15 15 16 17 15 11 10 14 27 28 10 9 19 16 23 33 34 34 28 25 25 24 33 37 28 25 22 21 35 38 31 32 35 35 31 25 24 21 17 17 18 19 18 17 17 18 17 17 21 24 21 21 26 29 29 31 30 29 26 23 24 22 24 34 41 52 56 55 68 72 61 62 60 55 69 78 68 71 78 73 73 79 83
16 16 17 18 18 17 20 21 20 18 22 32 34 26 15 8 14 17 15 26 32 30 29 25 22 21 19 26 31 24 21 21 18 28 33 27 31 32 29 29 26 24 23 19 17 17 17 17 16 15 17 17 18 23 27 24 24 28 31 31 30 28 28 26 22 24 23 22 30 39 50 56 55 64 71 65 63 62 59 67 72 67 72 80 78 81 82 81
16 18 18 19 19 19 23 28 32 38 44 53 52 35 17 13 16 14 19 31 34 27 24 21 19 19 19 21 25 21 20 21 16 24 31 25 28 29 24 24 24 24 23 20 19 17 16 17 15 14 16 16 18 23 28 30 28 27 28 29 29 26 25 24 22 24 23 20 24 27 35 50 57 59 61 64 67 71 73 74 69 62 69 79 79 78 79 79
17 19 18 20 22 22 24 30 38 48 52 53 53 40 21 16 15 16 28 36 31 26 23 19 17 18 20 21 24 20 18 18 15 23 29 22 25 27 21 18 19 22 23 20 20 19 17 17 15 14 14 15 20 26 30 31 27 23 21 21 24 24 21 20 21 22 22 20 21 20 22 40 57 59 57 63 71 77 84 85 77 64 60 70 77 73 72 75
18 19 20 22 26 26 25 30 38 49 53 50 44 32 22 21 16 23 41 39 24 23 23 18 16 18 19 21 22 19 17 16 16 23 24 19 23 23 18 16 15 19 22 21 20 20 19 16 16 17 17 18 24 28 28 27 22 19 19 18 18 19 18 21 23 22 22 19 20 20 18 30 53 61 59 64 70 71 77 83 82 73 64 66 72 69 69 74
18 20 22 23 27 30 29 30 35 41 42 35 28 23 22 23 19 28 44 36 20 21 21 18 17 18 20 21 21 18 16 16 16 19 18 18 22 19 15 16 16 16 20 23 22 20 17 14 17 20 22 25 28 27 24 24 21 19 24 22 16 16 18 23 25 21 21 21 20 22 15 21 50 64 57 60 66 65 69 78 79 75 72 72 72 66 67 72
18 22 27 26 27 30 31 33 31 30 31 25 20 20 19 25 32 34 34 28 20 19 19 18 18 19 20 19 19 18 16 15 16 17 17 18 19 18 17 17 19 17 17 23 25 22 16 14 22 26 27 28 27 25 23 24 23 20 26 27 20 20 18 21 25 21 24 27 23 23 16 17 47 65 59 60 68 67 70 77 76 72 69 71 73 66 65 69
20 23 30 30 28 29 38 51 47 34 31 24 17 24 30 38 44 36 26 22 18 16 17 17 17 19 19 17 18 18 16 15 17 18 18 19 17 17 18 17 20 19 17 20 24 25 19 15 25 31 31 29 25 24 24 24 25 22 24 27 25 22 18 21 24 22 26 27 22 22 16 18 45 67 65 64 70 69 70 75 75 71 65 66 71 67 64 69
20 24 30 32 32 32 37 47 39 26 27 27 28 45 54 48 38 28 24 22 16 15 15 13 16 19 17 16 17 17 16 15 18 20 19 19 16 15 16 16 18 19 18 20 20 23 21 17 24 29 28 29 25 22 23 25 28 26 22 23 24 20 21 24 23 22 24 21 20 18 14 29 56 67 65 67 72 72 73 78 80 76 70 73 79 74 68 68
21 25 29 30 31 32 31 31 29 29 33 37 46 60 63 51 35 23 20 19 16 15 13 12 17 17 15 16 14 14 14 12 16 19 17 17 16 15 15 15 16 17 19 21 19 20 21 19 25 27 25 29 26 21 23 27 30 28 20 20 23 20 24 27 22 22 21 16 19 14 17 46 66 64 66 70 72 75 76 81 85 81 73 75 83 84 76 69
21 24 28 30 29 30 33 32 33 35 34 41 55 58 52 45 32 20 17 17 16 15 14 13 14 15 15 14 12 12 11 11 15 17 16 16 15 15 14 13 16 17 18 21 18 18 20 19 23 26 24 28 29 23 23 26 27 27 20 20 22 18 19 22 19 19 18 14 15 10 19 49 63 62 67 69 70 76 77 78 83 79 68 69 81 90 85 73
23 29 33 31 26 28 31 32 33 34 36 47 55 49 43 36 24 18 18 16 15 14 13 12 12 14 15 12 12 12 11 11 13 14 14 14 13 14 13 13 16 18 18 19 17 16 18 17 19 23 22 25 28 25 23 22 22 24 22 19 20 17 15 16 15 15 14 12 12 15 31 51 60 64 67 67 70 74 75 79 82 77 66 65 77 87 86 75
24 33 44 39 32 32 30 32 35 33 42 54 48 37 36 31 22 21 20 17 16 14 12 12 12 13 13 12 12 12 12 13 13 13 13 13 13 14 13 13 17 20 19 19 19 17 15 14 17 20 18 20 25 26 25 20 17 20 22 20 21 18 15 15 14 12 10 12 19 32 49 57 60 66 67 68 70 70 73 77 78 78 73 71 80 85 88 87
25 34 52 49 38 36 31 31 34 33 45 55 42 30 28 25 22 22 20 19 18 15 12 12 12 11 12 13 14 14 13 14 13 12 12 13 14 15 16 16 18 21 22 22 22 21 16 15 17 18 16 17 22 25 24 20 17 18 19 20 20 18 16 16 16 17 13 12 23 40 52 57 57 62 67 69 69 70 75 77 80 89 90 88 90 89 90 95
38 42 54 49 39 36 32 32 35 40 49 48 34 27 24 23 23 22 20 18 17 15 13 12 12 12 12 14 15 16 15 15 15 14 13 14 16 18 18 18 19 21 23 23 22 21 18 16 17 17 16 17 19 20 19 18 17 17 16 17 17 16 16 15 16 23 18 13 32 49 49 53 57 60 65 66 67 75 81 84 90 96 96 97 98 95 93 95
49 54 55 48 40 34 30 36 43 48 49 41 33 29 24 23 23 21 21 20 18 19 18 17 17 14 15 16 15 15 15 14 15 14 14 14 17 20 19 18 20 20 21 22 22 21 18 16 17 18 16 16 18 18 17 17 16 17 17 16 16 15 15 13 15 21 18 16 36 51 49 53 59 59 62 64 70 81 82 84 89 88 89 95 97 98 99 96
52 62 55 46 38 27 26 37 45 47 43 33 30 28 25 26 25 21 22 20 20 22 22 23 21 17 19 19 15 14 15 13 12 13 14 16 19 21 20 20 22 21 21 21 21 21 19 17 18 17 16 16 18 17 14 14 14 15 17 17 16 14 13 14 14 17 20 19 29 46 57 60 59 60 65 68 75 82 80 83 89 86 87 91 91 97 101 97
53 60 49 42 35 27 34 43 38 37 36 30 28 28 27 28 27 24 23 20 20 21 20 22 22 19 20 20 17 16 13 12 13 13 15 19 22 22 21 22 22 21 22 21 20 20 19 19 19 17 16 16 15 15 13 14 14 12 14 16 13 13 14 16 16 15 18 19 24 45 66 67 62 64 67 68 75 81 81 87 94 91 91 93 89 92 99 100
43 48 43 38 32 29 41 43 30 27 31 29 28 28 28 29 27 26 24 21 22 20 18 21 23 22 21 21 20 17 14 14 16 16 19 23 25 25 24 22 21 22 22 20 19 19 18 20 21 17 16 15 13 14 15 17 18 15 14 14 12 13 14 14 16 15 16 25 36 50 67 73 68 66 66 67 73 78 80 87 92 92 96 99 93 90 94 97
37 39 36 30 28 34 42 38 29 27 29 28 28 29 30 30 29 28 25 24 24 22 20 21 22 23 23 23 20 18 17 18 21 22 23 26 27 26 25 23 23 23 24 22 20 18 17 19 22 19 17 16 15 16 17 18 19 17 15 14 13 13 12 12 16 18 20 34 47 53 65 75 72 67 69 70 69 73 78 82 87 91 97 101 97 93 92 93
40 35 30 27 28 35 39 35 30 30 29 29 29 29 30 30 31 31 28 28 27 25 24 23 23 23 23 23 22 21 20 22 26 26 24 26 25 23 24 25 26 26 26 28 25 19 18 19 21 21 19 18 17 17 18 17 18 17 15 15 15 14 15 16 18 20 21 27 35 49 69 77 72 71 73 70 67 70 74 76 79 85 94 98 93 90 91 92
44 39 32 29 29 31 32 30 30 30 30 31 29 28 30 31 33 34 31 31 29 27 27 26 23 23 22 23 23 24 24 24 26 25 24 26 25 23 23 24 26 26 25 26 24 21 23 23 23 25 23 23 24 22 18 16 17 17 15 15 16 15 19 20 19 21 22 21 32 53 72 79 75 74 73 68 68 71 73 76 79 83 92 98 95 86 83 86
46 44 35 31 28 28 28 28 29 29 31 35 32 29 30 29 31 32 31 32 31 30 29 28 25 24 22 23 23 23 24 24 26 27 25 25 25 25 24 22 22 22 21 23 22 20 25 27 28 33 31 27 28 26 19 15 16 18 17 17 16 17 20 20 21 24 23 32 53 61 62 73 79 75 72 70 71 75 76 79 82 84 88 95 99 92 78 75
44 40 38 40 36 33 32 30 31 29 31 37 34 29 30 30 30 32 30 32 33 31 31 30 28 27 27 26 25 24 24 23 24 25 24 25 28 26 22 22 21 17 16 21 20 19 26 27 26 32 33 28 25 22 19 18 17 16 15 16 17 18 19 19 22 24 20 35 66 70 59 69 78 72 73 76 76 79 79 78 81 82 81 85 94 98 88 72
44 35 35 42 41 38 35 31 34 34 32 33 31 29 32 30 30 33 33 34 33 31 36 37 31 29 32 32 32 32 32 30 27 27 26 28 30 26 22 23 23 18 18 23 22 22 28 30 23 21 25 24 22 20 19 19 18 16 15 16 17 18 19 20 22 22 20 34 64 75 70 72 77 74 77 79 77 79 80 78 81 81 81 82 85 94 97 81
54 43 34 36 38 38 34 30 34 36 32 33 33 32 35 35 32 32 33 38 37 31 36 42 36 32 33 33 36 40 41 39 37 37 35 33 29 25 23 26 26 22 20 26 30 27 25 27 25 20 20 21 20 20 20 18 18 18 18 17 17 17 17 20 20 19 25 41 61 75 77 76 78 80 81 80 79 80 79 79 82 82 85 88 87 93 97 84
60 55 42 40 40 36 36 36 38 37 35 39 38 32 34 39 37 34 35 41 44 39 37 41 39 37 37 37 40 46 49 49 49 46 42 40 36 30 30 34 33 30 27 28 33 30 23 25 29 28 26 23 21 20 20 19 18 18 18 16 17 17 16 20 23 21 31 52 69 77 81 81 82 84 84 82 82 84 82 81 82 80 81 87 91 95 94 79
43 49 46 47 43 34 34 36 38 42 44 45 42 37 38 39 35 36 39 38 42 46 44 43 41 40 42 45 49 53 53 53 53 49 44 44 42 37 41 44 39 36 35 33 33 31 26 26 29 30 30 26 21 19 18 18 17 17 17 16 16 15 14 19 25 25 33 54 73 82 85 84 84 86 89 89 88 86 84 83 83 80 79 82 84 82 75 66
24 33 39 48 48 38 36 39 38 42 45 43 39 37 38 39 37 43 49 43 39 42 44 43 43 43 45 51 57 60 57 54 54 52 46 45 43 40 41 44 42 40 39 39 40 37 31 29 29 29 30 26 20 19 18 17 16 16 15 15 14 15 14 16 22 27 33 48 68 81 86 87 88 89 90 92 90 86 87 87 83 82 82 80 82 81 66 55
Wind_Speed
9 9 10 10 10 10 11 11 11 11 11 11 12 12 12 12 12 12 12 12 12 12 12 13 13 13 14 16 16 17 18 18 19 18 17 17 15 14 13 11 12 13 13 13 13 12 11 9 7 4 1 1 3 5 5 3 2 4 6 6 6 7 8 6 6 8 9 13 13 13 14 14 16 17 16 17 15 15 15 15 17 18 17 19 23 24 24 24
8 9 9 9 10 10 11 11 11 11 11 11 11 12 12 13 13 12 12 12 11 12 12 13 13 14 14 14 16 17 17 18 19 18 18 18 15 14 13 11 12 13 13 13 12 11 10 7 5 4 2 1 3 5 5 4 1 2 4 4 6 7 8 8 6 7 9 13 14 14 14 13 14 15 14 16 16 15 15 17 20 20 19 19 23 24 23 23
8 8 8 9 9 10 10 11 11 12 11 11 11 11 12 13 13 13 13 12 12 12 11 12 13 14 14 14 15 15 17 17 18 20 19 18 15 14 13 12 12 13 13 13 12 11 9 5 4 4 2 2 4 7 4 3 3 2 2 4 8 8 7 7 8 5 8 11 14 14 13 13 15 14 13 14 16 16 16 19 22 22 21 22 23 24 23 23
9 9 8 8 9 9 10 10 11 11 12 12 11 11 11 12 12 13 13 13 13 12 11 11 12 13 13 14 14 14 15 14 19 21 18 18 17 15 13 13 13 13 14 15 14 12 10 6 5 5 5 5 7 9 6 5 5 1 1 3 4 9 6 4 8 4 6 11 13 13 13 13 15 14 12 14 15 15 16 20 22 20 21 23 22 22 23 22
10 10 10 9 9 9 10 10 10 11 11 12 12 11 11 12 12 12 13 13 13 13 12 11 11 12 13 14 13 13 11 8 18 22 15 17 18 16 15 13 13 13 14 16 16 14 12 9 6 7 8 8 9 10 8 7 6 2 2 2 2 10 5 3 7 6 4 10 12 11 12 12 14 14 12 13 14 12 16 20 18 16 19 22 22 21 21 22
11 11 11 11 11 10 10 10 10 11 11 11 11 11 11 12 12 12 12 13 14 14 13 11 10 11 12 13 12 12 11 9 18 21 15 17 18 17 16 15 14 14 15 16 17 16 14 11 10 10 9 9 9 11 9 7 8 5 4 2 4 7 3 1 5 5 2 7 11 11 11 13 12 12 12 13 13 13 18 20 17 16 18 20 21 20 20 21
11 11 11 11 11 11 11 10 11 11 11 11 11 11 11 12 12 12 12 12 13 14 13 12 11 9 10 12 11 12 12 14 20 18 14 16 17 18 17 16 15 15 15 16 18 16 14 12 11 12 10 9 8 9 9 7 9 7 5 4 3 3 3 4 4 6 2 5 10 11 11 13 12 12 11 10 11 14 20 20 18 18 20 21 20 19 19 20
10 10 11 11 11 11 11 11 12 11 11 11 11 11 11 12 12 12 12 12 13 13 13 13 11 10 9 9 10 9 8 17 24 17 13 14 16 18 18 17 15 14 14 16 18 15 13 12 12 12 11 10 7 7 8 8 10 8 7 4 2 1 1 5 3 4 1 3 9 11 12 14 12 11 10 11 12 14 19 20 18 19 21 21 21 19 18 19
10 10 10 11 11 11 11 11 12 12 12 11 11 11 11 12 12 11 12 13 13 12 13 13 12 10 8 7 8 6 8 21 25 17 13 13 14 17 18 17 15 14 13 14 17 16 13 12 11 12 11 10 9 8 9 9 10 8 8 6 2 3 2 2 3 5 3 2 9 12 13 14 12 11 11 15 16 15 19 19 18 22 22 21 21 19 18 19
10 10 10 10 10 11 11 11 11 12 12 11 11 11 12 12 12 11 11 12 13 12 13 12 12 11 8 7 7 4 12 23 22 17 15 14 14 16 18 18 16 14 13 14 16 16 13 10 8 10 10 11 10 8 9 10 9 7 8 8 4 4 4 1 5 10 6 3 8 10 11 11 12 14 16 19 17 16 20 20 20 23 23 22 22 20 18 19
11 10 10 10 10 10 10 11 11 11 11 11 11 11 12 12 12 12 11 12 12 12 13 12 12 11 8 8 11 5 13 19 20 17 15 15 14 15 17 18 17 15 14 14 15 16 14 11 7 8 9 11 10 8 10 11 9 6 7 8 7 7 6 4 6 8 6 3 6 10 11 10 12 16 18 20 17 17 22 23 22 23 24 23 21 20 20 20
11 10 10 10 9 9 10 10 10 10 10 10 11 11 11 11 12 12 12 12 11 12 13 12 12 11 9 10 12 10 12 16 19 14 12 16 14 14 16 17 17 16 14 11 11 14 14 11 9 10 9 9 8 6 9 11 11 10 8 8 9 7 8 7 7 7 6 5 6 10 12 10 13 15 17 20 18 19 23 23 23 23 24 24 21 21 22 21
11 11 11 10 10 10 10 10 10 9 8 9 10 10 10 10 11 11 12 12 10 11 12 13 13 11 11 9 10 15 14 14 17 12 11 15 14 15 16 17 17 17 16 11 7 11 14 12 11 14 11 9 9 7 7 10 11 12 10 9 9 9 10 9 9 10 9 5 7 10 12 11 13 14 17 20 18 19 23 22 22 23 24 24 23 22 24 22
11 11 11 11 10 10 10 10 10 8 8 8 9 9 9 9 9 10 11 11 11 11 11 13 13 12 13 12 10 17 15 14 16 10 10 12 12 14 15 17 18 18 19 16 10 12 15 14 14 18 16 13 13 9 9 9 11 12 11 11 11 10 9 10 11 10 9 6 9 10 9 11 14 14 16 20 19 19 22 23 22 22 24 24 23 23 24 22
12 12 12 12 11 11 11 11 10 9 8 8 8 8 8 7 8 9 10 11 11 10 10 11 12 12 13 12 13 17 13 14 15 9 9 10 11 13 14 16 17 19 21 20 17 15 16 18 19 22 16 13 15 10 10 11 13 12 12 12 12 10 7 10 14 11 8 8 10 8 6 10 13 14 15 18 21 21 21 22 22 22 24 24 22 23 23 21
13 13 13 12 12 12 12 12 11 10 8 8 8 7 7 6 6 7 8 9 10 9 9 9 11 12 11 11 15 17 13 13 14 10 8 9 10 11 13 16 18 21 22 22 21 19 22 23 22 21 14 10 14 12 9 11 14 15 15 13 10 11 9 11 14 12 9 9 9 7 6 9 12 15 17 17 22 25 23 22 22 22 23 23 22 22 22 21
14 14 13 12 12 12 12 12 12 10 9 9 8 7 6 6 5 6 6 8 8 8 8 8 10 12 13 14 18 17 13 10 12 10 9 9 8 9 14 16 18 20 20 21 21 19 21 21 18 18 15 13 14 13 12 13 15 16 17 14 10 11 9 9 13 12 8 8 9 7 6 7 10 15 18 19 23 25 25 24 24 23 24 23 22 22 22 21
15 14 14 14 13 12 12 12 12 11 10 9 8 7 6 6 5 5 5 6 6 5 5 8 9 9 9 13 15 15 10 8 12 10 9 9 8 10 15 13 14 17 17 18 19 17 16 14 13 14 15 16 16 16 16 15 15 16 17 15 12 12 11 10 12 11 8 8 10 8 7 8 10 14 16 18 21 23 25 26 26 25 24 22 21 22 21 20
15 15 15 15 14 14 13 13 12 11 11 9 8 7 6 5 4 6 7 6 6 4 2 5 10 6 3 8 8 9 7 11 12 9 9 11 12 14 14 11 11 14 14 14 16 16 13 12 13 15 17 19 18 18 19 17 15 14 16 15 12 12 13 11 8 8 11 11 9 8 7 8 10 14 16 17 19 20 22 22 23 25 25 23 21 22 21 20
17 16 16 15 15 14 13 13 12 11 11 9 8 7 4 3 6 10 8 4 7 10 5 3 8 7 2 4 2 8 11 15 12 8 11 12 13 13 10 11 11 12 13 13 14 15 14 14 16 18 18 17 18 19 19 20 19 15 14 16 15 13 12 13 9 9 13 10 6 8 7 7 9 12 14 17 20 19 19 20 21 23 25 24 22 21 21 20
17 16 16 16 15 15 14 13 11 10 11 9 8 7 2 3 3 4 4 1 4 11 9 5 8 7 3 3 8 13 13 13 10 9 12 11 10 11 12 13 12 13 15 14 13 13 15 18 18 18 17 16 16 18 18 20 21 18 14 14 17 17 13 13 13 13 13 9 8 9 7 6 7 9 12 16 19 18 17 17 20 21 22 24 24 23 21 20
16 16 16 16 16 15 14 13 10 8 7 8 7 7 4 4 8 9 6 3 5 10 10 9 12 11 8 6 9 13 11 9 10 12 13 11 11 12 13 14 14 14 15 16 15 14 18 21 19 16 16 16 15 17 19 19 20 19 15 14 14 16 15 13 15 16 13 12 14 13 10 8 6 7 11 13 17 17 15 16 19 20 20 21 25 26 22 21
16 16 16 16 15 14 13 12 9 6 3 6 6 6 5 6 9 9 8 4 5 10 10 12 14 13 13 11 10 11 11 10 11 14 14 13 14 13 12 12 14 15 14 18 19 17 19 20 19 17 15 17 16 15 16 18 19 18 15 16 14 14 16 15 15 14 11 11 15 15 14 11 8 10 12 10 13 14 13 15 17 17 17 18 22 24 23 22
17 16 16 14 13 13 12 10 8 5 2 2 5 7 6 5 6 7 9 6 5 10 10 11 13 14 16 15 12 11 11 12 12 15 17 14 15 13 12 12 14 16 16 18 20 18 17 16 18 19 16 17 16 15 16 18 18 15 14 16 14 12 14 17 14 9 9 10 14 16 15 11 12 15 13 10 13 12 10 14 15 15 15 16 20 23 23 24
17 16 14 12 12 13 11 9 8 6 7 5 3 5 4 4 4 5 7 5 7 10 9 9 11 13 14 13 12 11 11 13 12 16 18 14 15 13 11 12 14 16 16 17 20 20 17 14 16 20 18 17 17 16 16 15 15 15 16 17 15 12 13 17 14 9 11 13 17 18 13 10 14 14 12 11 14 13 10 13 14 14 15 16 20 23 23 24
17 15 12 10 11 11 10 10 8 10 12 5 4 7 4 3 4 5 6 7 10 10 8 9 10 10 14 14 11 9 11 13 12 17 19 13 15 14 10 11 13 15 15 16 18 19 18 15 15 19 20 19 18 16 14 14 14 14 16 18 16 15 15 17 14 10 12 13 17 19 9 9 13 11 11 14 15 14 14 15 13 12 14 16 19 19 21 24
16 13 10 9 10 9 9 8 6 10 11 6 9 8 4 2 3 5 3 8 9 10 8 9 9 9 13 13 12 12 10 11 14 17 17 13 15 15 12 11 13 15 14 14 16 17 18 17 16 18 19 19 19 16 14 15 16 13 12 18 21 20 19 18 17 14 13 11 14 18 11 11 17 13 12 17 19 17 16 14 10 11 13 15 18 17 18 22
15 11 9 9 10 8 10 8 6 7 3 13 10 6 3 3 4 4 2 5 6 10 8 10 9 9 11 11 15 15 6 8 17 16 13 12 14 14 13 12 12 15 14 13 15 15 17 20 17 16 16 17 18 16 14 14 17 13 7 11 21 22 18 15 18 20 19 16 14 19 17 12 20 20 17 18 20 18 15 11 9 10 11 13 17 18 18 20
13 10 9 10 11 8 8 9 5 4 3 8 5 2 3 5 5 3 5 4 5 6 6 8 9 10 11 11 18 17 7 9 13 12 11 13 15 14 13 11 10 14 15 13 15 14 15 19 17 17 16 14 15 16 14 14 16 13 5 4 12 16 18 16 15 18 20 16 15 17 22 14 15 21 20 16 15 14 12 10 9 10 11 14 17 18 18 19
13 10 10 11 12 9 8 10 11 6 4 2 2 5 8 9 4 4 6 1 2 5 5 6 8 11 12 13 18 18 11 9 8 9 13 13 15 14 12 11 8 12 15 14 19 17 13 14 13 16 17 15 14 14 14 15 14 12 5 4 7 9 16 16 11 12 13 12 18 18 22 19 8 11 16 17 14 13 12 10 9 10 12 14 16 17 18 19
11 9 10 10 12 12 10 9 10 7 5 4 8 11 9 6 2 7 3 1 1 3 2 6 8 12 14 15 18 18 14 10 6 10 14 11 14 14 12 11 8 10 12 14 20 17 12 16 15 13 15 16 16 16 16 14 14 14 9 9 11 10 12 14 13 14 10 9 17 19 20 18 10 9 14 17 13 10 12 9 7 10 12 13 15 18 19 20
10 7 8 10 11 12 11 8 4 5 9 10 13 13 7 2 5 5 0 2 4 1 2 7 9 11 14 15 17 18 17 14 11 11 11 10 15 16 14 14 12 12 12 13 18 15 13 18 17 13 15 15 16 19 18 13 14 18 14 13 14 11 9 10 12 13 11 11 16 19 17 9 14 13 16 18 13 11 14 11 8 9 12 14 14 16 18 20
9 6 6 9 10 10 11 12 12 12 11 11 13 11 4 4 4 4 2 1 1 2 2 7 9 10 14 17 17 17 18 16 13 12 13 12 13 15 16 16 16 14 10 11 17 17 14 14 14 13 16 16 16 18 19 16 16 20 17 15 15 10 7 7 9 10 11 14 17 19 14 11 19 15 14 16 13 12 13 11 10 10 13 14 14 14 17 20
7 6 6 6 9 10 10 11 13 11 9 9 12 9 4 4 2 3 1 0 1 3 2 6 8 10 14 17 15 14 17 16 13 14 15 15 14 15 17 16 16 15 10 12 18 20 17 13 13 15 15 17 18 17 16 18 19 19 17 17 18 15 10 8 8 9 10 13 18 20 12 15 20 17 16 15 13 13 12 10 10 11 13 13 13 15 18 20
5 7 8 5 5 8 9 10 11 8 8 8 7 6 5 5 1 2 4 1 2 1 3 5 8 13 15 17 14 14 16 14 14 16 16 16 15 16 18 16 15 15 12 14 17 18 19 17 16 18 12 14 21 17 12 16 20 19 17 17 19 19 14 10 10 14 14 12 13 11 9 17 22 20 18 16 14 14 13 11 10 10 13 12 11 15 17 19
3 4 11 11 7 5 7 10 9 6 9 8 4 3 2 4 3 6 5 1 2 4 2 6 10 14 15 13 11 14 14 10 13 16 15 17 15 13 14 14 16 15 10 12 12 11 16 15 14 18 12 14 23 18 11 15 16 17 21 21 20 17 15 14 13 15 16 10 8 14 21 23 22 19 17 17 16 14 13 13 11 11 12 11 11 12 14 17
3 1 8 10 7 4 4 7 5 5 8 6 5 4 4 4 4 6 4 3 7 6 3 7 8 10 10 10 9 11 11 8 12 15 15 16 11 6 6 5 10 11 5 7 9 11 9 8 14 15 10 11 20 18 14 17 14 13 17 19 19 19 20 15 7 8 11 9 8 19 29 27 21 17 17 18 17 14 13 13 12 13 12 11 11 11 11 14
5 6 4 1 6 7 3 5 6 7 7 7 5 3 5 5 4 5 4 2 3 3 2 4 5 5 6 9 11 13 12 11 13 15 15 14 9 6 5 2 1 7 5 5 8 13 9 8 11 11 10 12 17 15 14 19 20 15 10 11 16 17 19 17 6 6 9 7 6 17 26 22 18 20 21 19 17 16 15 12 10 14 16 13 13 13 10 10
10 12 6 3 8 7 4 5 8 8 6 6 3 2 3 5 5 4 3 1 1 4 5 2 4 5 5 8 10 14 15 13 14 15 14 12 8 6 8 6 3 5 8 7 10 13 9 8 10 11 12 13 16 16 16 19 22 20 13 11 18 17 14 17 16 10 10 5 4 12 14 11 13 20 22 18 16 15 13 10 7 10 15 17 19 18 14 9
7 8 3 4 7 4 6 4 6 5 5 3 1 2 2 4 5 4 3 2 1 2 6 3 4 5 4 8 8 12 14 12 13 13 9 9 5 2 4 7 5 4 7 9 9 9 8 9 8 9 12 12 14 19 20 19 21 22 16 13 20 20 11 12 19 17 14 8 3 8 7 10 14 16 18 18 15 11 8 7 7 6 8 12 19 22 19 16
9 4 6 6 6 1 5 4 8 7 6 2 2 3 1 3 6 4 2 3 1 1 3 3 2 3 3 4 5 9 11 9 10 7 6 8 4 1 4 8 8 6 7 8 9 8 7 8 7 8 13 12 15 19 16 13 15 19 20 17 19 21 13 8 13 19 19 12 5 11 9 11 14 14 14 15 14 11 7 8 8 4 3 6 14 23 25 23
12 4 6 11 7 2 3 8 6 4 4 2 2 3 2 3 6 4 2 2 2 2 1 1 1 0 2 3 5 8 7 4 5 3 4 6 3 1 2 6 6 5 6 9 11 10 7 6 5 6 10 10 11 15 12 10 8 10 16 19 18 20 18 13 9 13 16 6 12 18 13 11 13 13 13 14 14 11 10 11 7 3 5 7 7 14 22 25
9 5 8 9 3 2 5 7 3 1 3 2 2 1 2 3 4 5 3 2 3 2 1 1 1 1 1 0 4 7 6 2 3 1 2 4 2 0 1 3 1 3 5 8 6 6 8 9 8 3 4 5 6 9 11 11 6 7 13 15 17 19 20 16 8 8 6 9 18 15 8 10 15 14 15 16 15 12 11 11 6 2 5 7 8 10 13 17
5 3 6 4 4 4 6 5 1 1 2 3 1 1 2 2 2 4 5 4 5 4 3 1 1 1 2 1 2 2 3 5 3 2 1 2 4 4 2 4 1 4 4 5 2 2 6 10 9 5 4 8 8 6 11 14 9 11 15 12 13 14 10 8 7 8 6 4 9 10 7 11 16 15 15 15 14 12 12 11 8 5 4 4 6 10 11 10
5 2 1 2 4 4 3 3 2 2 2 2 2 2 2 2 3 3 2 4 5 4 4 3 1 1 1 2 3 2 2 5 4 5 3 2 2 3 3 6 5 1 4 4 2 3 1 6 6 6 4 5 5 2 8 16 13 11 13 11 11 11 6 7 7 5 8 8 4 14 15 17 16 14 15 16 15 14 12 11 11 8 6 4 5 9 11 11
5 4 1 1 2 1 1 3 3 2 2 0 2 3 2 4 5 3 1 3 4 2 3 3 2 2 2 4 4 3 4 4 3 5 5 3 3 2 2 5 9 11 8 5 4 1 4 5 3 2 2 1 2 5 2 9 12 14 16 11 9 11 9 7 7 5 3 6 11 15 19 24 21 17 17 17 16 16 14 12 11 10 8 7 6 7 10 12
6 5 2 1 2 2 1 3 3 3 3 1 1 3 3 4 4 2 1 3 3 2 4 3 2 4 3 3 5 5 6 5 4 5 6 4 3 2 2 1 5 10 7 5 8 5 4 5 5 3 3 1 3 3 0 2 7 15 21 14 8 10 10 9 10 8 4 7 10 14 19 26 27 22 21 20 18 17 15 13 11 11 10 9 9 9 10 12
7 4 2 1 1 3 2 3 4 4 4 2 2 3 4 4 3 3 3 4 3 2 3 3 3 3 3 2 3 2 3 4 5 5 5 4 2 3 2 0 2 4 3 1 4 5 6 8 6 6 8 7 3 3 4 4 8 3 13 8 5 9 10 10 12 11 7 3 10 17 20 24 26 25 23 21 18 16 15 13 12 13 12 11 10 9 9 11
5 2 1 0 1 3 2 2 3 3 4 4 4 3 5 5 4 3 3 5 4 1 1 3 2 2 3 3 3 2 1 1 1 3 4 1 2 4 3 1 1 2 2 1 3 5 8 7 5 4 5 7 7 6 6 5 6 2 6 4 2 5 8 10 12 11 6 2 11 20 22 21 23 24 23 21 19 18 18 16 13 13 12 11 10 8 8 10
5 5 4 4 2 2 1 2 1 1 3 4 4 3 4 4 4 3 3 5 6 2 1 1 1 1 3 2 1 0 2 3 2 0 2 0 1 3 2 1 2 0 1 2 3 4 7 5 4 5 7 7 8 8 7 7 6 4 5 5 4 5 6 7 9 9 5 8 15 24 25 23 23 23 22 23 22 19 17 15 14 12 9 6 6 7 9 11
9 8 9 8 4 2 1 1 1 0 2 3 3 4 4 3 3 2 2 4 4 3 2 2 1 2 1 0 2 3 4 4 2 2 3 1 1 1 2 2 2 1 2 3 3 4 6 5 4 5 8 10 9 9 10 10 9 10 11 9 7 9 9 7 8 9 7 13 21 25 26 25 25 21 19 19 18 16 16 16 16 16 10 5 3 4 8 12
8 10 11 9 4 2 1 1 1 1 2 2 2 3 4 3 2 2 2 4 3 1 1 3 2 2 1 1 3 4 4 5 3 3 4 3 1 2 3 4 4 3 1 2 2 4 6 6 6 5 7 12 12 10 10 10 10 13 16 15 12 11 10 9 9 8 7 13 23 27 26 26 23 18 16 15 15 16 16 16 19 20 17 15 10 5 8 13
Wind_Direction
306 304 300 299 294 290 288 287 287 286 287 287 286 283 277 271 264 262 261 258 254 249 244 241 239 239 239 239 240 239 237 234 232 230 229 231 227 225 225 221 223 221 220 220 221 222 224 231 226 225 224 247 345 343 319 333 259 296 346 15 51 64 67 84 142 147 141 140 143 150 149 153 153 145 144 145 140 137 137 134 120 125 148 155 149 146 148 147
310 305 301 300 295 293 289 285 285 282 282 281 283 282 280 277 269 264 261 261 258 252 247 242 240 239 238 238 238 240 240 238 235 232 232 233 228 225 222 218 221 219 218 219 219 218 217 218 207 203 188 184 327 309 310 336 303 349 352 21 58 62 69 64 79 127 138 136 141 151 151 149 154 152 150 152 147 138 133 129 127 141 159 155 150 149 149 148
315 309 304 301 297 295 291 287 285 282 280 276 275 276 277 278 273 268 263 263 262 257 251 245 241 239 239 237 236 239 241 242 241 234 231 234 230 225 220 215 218 216 212 210 209 209 203 190 187 185 151 155 229 264 287 298 288 332 2 29 48 61 72 40 37 97 137 139 142 144 147 145 154 157 152 154 143 135 134 135 144 156 159 151 151 152 150 149
315 313 308 304 300 297 294 290 285 282 281 277 274 270 271 272 273 270 264 263 264 264 260 250 243 240 239 238 236 236 239 246 247 236 229 234 232 225 219 213 215 213 209 205 200 195 183 173 189 184 169 194 226 248 262 268 276 285 13 358 41 65 68 3 24 64 136 139 142 142 144 146 156 156 156 156 139 138 140 146 156 155 152 148 149 152 151 149
312 310 308 307 303 299 297 292 288 284 281 279 276 272 268 267 267 267 264 262 262 265 266 259 250 242 239 239 234 235 231 240 248 237 226 233 231 224 219 214 213 210 209 206 198 184 171 171 201 203 192 209 234 246 254 264 259 260 331 298 90 71 62 319 22 44 120 138 144 144 146 150 157 151 153 152 141 146 143 151 162 148 145 146 148 152 151 150
310 308 307 305 302 300 296 293 290 286 283 281 277 275 270 266 264 263 262 259 258 262 266 267 258 245 241 238 234 233 211 207 244 239 227 231 230 225 219 215 213 210 208 206 199 183 170 176 205 215 206 214 230 243 252 251 242 255 294 294 84 77 91 242 358 8 75 150 154 149 148 150 153 147 148 150 152 157 145 154 164 148 145 145 148 153 152 153
312 309 307 305 302 300 296 294 290 285 283 280 278 275 270 268 265 262 260 256 254 256 262 267 266 255 244 238 235 231 212 222 244 241 231 232 229 226 220 216 213 211 210 207 199 182 175 184 204 215 216 229 238 243 245 237 238 243 263 300 48 57 97 122 295 319 51 158 162 151 152 155 152 145 144 146 157 159 149 156 162 151 147 144 150 154 155 154
317 313 311 306 303 300 295 293 289 286 283 279 279 274 269 267 263 262 259 254 250 250 256 261 266 261 247 239 234 227 223 239 241 235 233 233 228 227 221 216 214 213 210 208 198 176 181 194 201 213 217 231 239 247 240 230 240 235 243 267 123 161 63 114 262 295 55 178 171 154 152 161 153 142 142 141 153 157 151 158 160 151 147 146 150 155 159 154
323 318 314 309 306 303 298 294 291 289 287 283 280 274 270 266 262 261 256 254 249 245 248 252 260 261 250 239 219 205 230 240 241 233 229 229 225 225 221 215 214 214 207 209 198 176 187 201 203 209 214 236 248 259 247 232 240 229 239 264 151 174 245 134 181 208 211 160 163 153 152 161 145 138 144 138 144 152 151 158 159 151 150 150 152 159 161 153
327 324 319 315 311 307 303 298 294 292 290 288 283 274 269 265 262 260 254 252 248 243 243 242 251 252 248 228 184 181 245 245 247 238 226 227 222 219 218 214 212 212 204 205 196 181 185 193 207 213 223 251 252 257 244 229 242 231 240 268 276 238 234 187 169 198 218 147 140 139 147 157 144 145 141 130 141 155 153 156 157 152 152 151 155 161 157 153
335 331 326 322 316 312 307 304 301 298 296 292 286 276 270 266 263 262 256 252 245 243 240 234 240 240 240 213 171 183 254 251 249 238 226 226 221 215 214 212 210 209 205 201 191 184 182 184 207 222 243 254 239 258 250 228 238 242 247 255 256 245 223 195 168 200 228 178 146 141 140 142 145 151 141 134 150 161 154 156 157 154 153 154 160 159 151 155
341 338 335 331 325 317 309 306 305 304 303 298 291 284 277 270 265 262 260 256 244 239 237 231 233 228 230 211 186 211 247 254 254 247 232 226 220 213 209 209 209 206 200 194 195 192 184 190 218 219 234 241 219 259 251 224 233 240 249 248 245 240 219 206 177 201 218 160 159 155 138 134 150 158 149 144 155 158 155 158 158 157 155 158 166 156 151 162
339 338 337 334 332 323 314 311 308 309 307 303 299 292 287 278 270 265 262 260 250 240 233 230 227 222 222 197 194 229 239 254 260 260 244 228 221 214 206 203 205 205 195 181 211 218 197 202 228 219 221 233 228 267 248 215 231 238 245 249 251 243 221 202 170 194 216 159 164 168 143 143 157 164 156 147 154 158 157 161 160 161 158 162 171 157 156 170
332 330 330 328 327 322 318 316 313 314 308 303 304 300 297 287 275 267 263 263 258 244 232 228 224 221 213 185 207 238 236 248 257 261 250 229 218 215 205 200 200 205 198 179 196 226 210 212 227 214 211 218 216 259 266 228 234 234 239 242 240 242 219 193 173 188 218 176 175 184 148 154 167 171 164 148 155 164 163 165 164 165 162 168 176 160 161 172
328 325 323 320 317 314 312 312 314 315 307 302 303 304 304 296 282 270 263 262 261 252 237 228 220 220 212 203 240 252 240 244 253 259 249 226 215 214 204 200 195 201 203 192 194 209 207 216 223 209 207 214 207 236 265 238 233 226 229 233 224 235 224 187 176 182 208 175 175 197 149 158 175 182 180 160 161 167 167 169 167 169 167 172 177 164 167 170
329 325 322 319 314 309 304 301 302 304 303 300 299 304 308 305 291 275 265 260 260 255 243 227 220 217 205 210 239 248 240 237 247 250 238 217 211 213 207 201 197 201 208 208 210 212 209 214 219 209 209 225 219 232 249 234 227 217 222 230 218 218 208 181 172 174 194 165 166 195 150 156 174 180 183 173 169 167 168 173 171 172 170 175 178 168 172 169
331 328 325 320 314 307 300 294 290 290 293 293 294 300 304 309 302 286 272 261 257 255 243 223 219 211 207 222 228 237 248 232 228 233 223 204 190 215 220 207 204 206 209 215 220 224 223 220 219 215 213 220 223 224 231 229 219 210 214 224 222 212 198 176 162 167 196 175 170 180 155 173 178 173 175 173 176 172 171 176 175 174 174 178 178 171 177 171
330 329 325 320 316 308 300 291 283 278 277 282 288 291 299 308 310 303 286 266 249 238 241 226 210 200 227 248 233 235 254 219 215 225 217 187 166 222 229 208 208 209 206 215 220 223 230 226 220 223 220 219 220 215 220 224 214 209 210 214 215 211 207 191 170 177 199 173 164 161 158 184 175 168 177 181 185 182 178 180 177 172 173 180 176 173 182 174
331 332 328 325 321 313 304 293 281 271 265 268 276 279 288 301 337 338 308 268 228 158 50 245 200 170 287 291 248 235 232 202 206 214 210 185 180 220 223 197 207 207 201 214 219 215 217 219 217 222 222 219 219 216 219 224 225 221 216 217 215 212 213 203 184 180 181 166 162 164 165 188 179 170 182 188 185 184 182 185 184 173 171 179 174 176 186 176
335 336 335 334 331 327 319 303 285 270 259 255 267 266 278 331 360 343 318 255 198 160 116 249 188 149 357 324 202 187 190 197 198 192 205 199 194 214 210 193 203 200 196 208 216 210 206 214 218 220 221 220 220 221 224 232 240 243 231 224 220 223 218 203 193 175 179 182 173 171 169 189 191 179 182 183 179 183 185 189 194 181 173 177 172 177 188 177
339 342 344 342 341 340 335 323 306 282 258 245 258 243 240 337 310 294 292 275 215 195 188 210 190 172 191 198 184 184 186 198 199 193 206 203 191 199 202 197 196 201 202 201 210 208 206 217 221 221 223 224 226 224 227 235 243 254 249 229 223 226 223 214 206 189 188 190 173 174 169 174 190 186 184 182 178 183 192 197 201 189 178 178 172 174 185 178
345 347 346 342 344 344 343 340 327 303 264 238 241 224 235 272 218 216 242 274 276 242 226 215 206 207 202 180 186 195 196 206 201 199 205 194 181 188 202 204 197 204 207 200 206 206 209 221 221 222 226 226 232 228 228 235 239 251 248 229 232 227 220 222 206 194 201 196 192 190 172 178 198 190 187 184 183 190 204 209 203 195 186 180 174 172 177 178
348 346 343 342 342 343 346 346 347 349 290 229 224 225 256 256 212 220 239 226 258 252 238 226 217 214 209 198 193 190 193 210 200 197 203 189 180 187 199 210 204 206 209 204 207 207 212 224 220 219 227 227 234 231 227 232 233 247 241 219 231 227 212 210 187 185 210 205 203 191 168 182 189 174 181 179 181 191 204 203 197 199 193 180 178 176 173 178
349 346 345 343 343 349 353 355 9 21 40 194 232 240 261 258 219 228 229 218 245 235 229 233 222 217 213 208 221 215 195 207 201 198 208 190 180 192 199 209 210 211 214 209 211 216 221 228 219 218 225 226 233 231 225 228 226 235 231 212 223 226 211 211 195 190 222 212 201 179 155 178 187 170 174 175 176 178 184 189 189 196 192 179 182 183 177 179
353 351 351 349 354 358 357 10 31 42 53 52 314 284 279 251 222 222 217 222 232 216 223 230 211 213 209 200 224 225 197 209 207 202 214 195 180 196 205 210 214 215 219 213 215 224 228 229 218 215 221 223 227 228 223 222 218 221 221 215 222 221 207 215 211 198 217 215 200 184 156 171 192 175 165 173 177 171 167 176 182 190 186 180 183 184 184 185
358 358 357 356 3 4 4 21 46 42 35 30 293 299 289 225 217 206 198 237 232 200 204 213 199 202 200 197 207 197 198 221 210 202 216 200 180 196 210 213 217 218 221 217 217 226 229 226 217 211 217 219 219 227 222 214 219 222 219 217 221 226 221 215 205 190 214 217 199 204 199 151 165 166 165 176 173 165 162 162 171 183 181 183 188 186 186 188
1 4 5 10 17 16 19 34 91 53 23 264 262 293 276 183 200 182 202 261 227 178 172 189 203 209 201 205 195 176 198 214 188 191 211 201 183 198 213 213 219 221 224 224 217 223 227 223 216 212 216 212 210 221 214 208 220 225 224 218 215 229 235 220 213 209 224 231 201 209 217 142 141 153 157 158 159 160 160 156 165 176 176 185 189 188 185 188
2 8 14 27 27 25 34 46 101 76 323 247 258 286 234 173 168 151 279 292 135 148 172 178 198 203 191 201 190 182 197 178 171 182 199 196 182 193 211 216 225 224 221 227 221 217 223 222 214 210 213 205 204 215 210 205 217 224 255 226 207 220 228 221 235 230 222 236 223 208 210 166 139 150 156 152 158 166 164 162 173 169 172 190 191 192 191 189
3 11 22 34 30 33 55 46 55 90 249 248 243 221 158 134 127 139 269 287 111 153 190 190 199 181 171 188 190 193 195 165 181 197 197 193 180 182 210 222 236 228 216 227 229 216 217 222 213 204 209 205 202 213 213 209 214 221 278 264 204 211 213 220 251 233 212 235 251 220 209 196 137 144 166 169 166 169 166 168 179 173 173 187 195 198 195 191
5 17 28 35 31 38 67 41 22 21 10 356 148 133 113 112 115 252 243 239 118 158 170 212 210 177 175 188 191 198 198 181 199 199 185 193 191 193 218 220 225 231 220 226 233 225 215 216 205 200 209 212 209 214 217 212 212 219 228 223 215 206 208 223 242 218 201 233 251 230 208 203 161 138 165 169 167 169 165 164 173 180 182 187 195 196 193 195
8 24 37 43 41 41 59 42 358 348 24 62 116 106 92 98 259 264 242 39 204 139 163 215 193 185 191 190 191 197 201 197 185 174 175 191 203 206 221 216 207 227 222 217 226 231 224 210 202 206 211 212 216 215 212 209 214 220 197 183 212 206 204 224 222 214 214 222 230 225 212 198 156 136 156 155 161 165 156 157 166 184 194 192 193 192 191 196
10 31 49 56 55 50 65 77 39 50 80 96 103 87 54 350 241 233 60 322 254 212 228 194 171 190 195 193 195 193 199 199 178 184 193 194 200 202 210 208 201 215 217 206 212 222 228 211 199 210 214 211 222 213 202 203 218 227 210 191 213 203 188 221 217 212 221 222 221 221 220 182 117 133 151 142 144 146 141 149 158 176 189 188 191 196 194 195
13 33 61 66 67 67 75 85 83 79 86 87 74 59 10 303 253 217 102 62 275 348 237 178 173 192 190 195 198 190 202 205 191 202 204 196 199 199 208 212 204 211 219 210 205 205 218 209 187 209 216 207 217 209 195 196 212 225 215 198 211 203 181 214 216 211 220 223 227 228 215 132 111 133 147 137 140 142 141 147 151 160 173 182 190 194 195 196
16 35 55 65 72 75 81 88 87 85 89 74 45 23 312 283 220 186 223 207 337 322 251 189 187 187 190 201 195 187 205 207 199 204 199 199 203 196 204 213 211 220 228 223 214 199 205 215 201 211 213 199 210 215 202 196 200 214 213 201 213 219 206 205 207 211 216 213 221 230 209 138 130 138 138 134 128 123 128 136 143 153 163 176 186 187 195 199
18 54 52 47 74 85 94 95 91 88 85 69 27 359 319 306 98 51 333 29 102 296 226 211 191 179 195 207 190 185 205 207 197 202 204 202 206 206 202 198 212 230 226 218 218 200 206 227 214 202 206 202 208 217 214 200 198 207 214 213 220 222 216 218 220 214 211 210 207 199 143 125 133 135 133 132 125 118 118 122 126 140 156 170 181 186 195 198
357 69 35 22 30 63 84 79 77 84 71 51 350 334 325 310 351 1 336 237 294 316 232 222 204 188 197 203 189 188 200 208 198 201 210 204 206 217 206 194 207 222 224 219 228 225 219 219 186 182 206 213 205 210 208 198 201 204 208 217 224 224 225 229 231 220 211 211 179 131 116 123 131 134 138 132 125 123 124 123 117 122 145 158 167 182 190 191
343 76 18 9 359 0 81 74 57 67 54 19 316 331 352 338 353 347 327 273 300 311 221 216 216 209 199 187 203 208 199 211 210 206 208 200 198 207 199 197 194 194 208 222 245 274 251 180 150 170 201 202 200 212 211 206 217 208 198 211 222 231 239 237 257 261 224 208 173 139 135 142 143 140 148 138 125 126 133 134 121 118 127 133 150 173 184 188
51 80 59 337 318 337 98 90 35 40 21 332 298 324 350 6 11 349 350 327 309 318 250 220 217 230 207 187 206 212 208 212 206 209 207 188 183 198 209 299 194 193 216 223 260 281 261 180 159 183 203 190 194 213 216 216 226 228 225 223 215 228 241 225 231 290 235 205 160 145 142 145 148 147 149 142 131 125 130 138 128 132 142 146 159 165 169 191
75 59 56 213 296 320 117 78 23 29 3 324 299 304 354 24 19 8 21 8 318 13 13 329 256 252 246 243 225 203 211 214 195 208 213 185 177 212 230 264 287 231 235 250 278 286 263 205 176 185 202 191 191 209 217 217 223 232 258 247 218 233 253 220 213 245 244 225 150 150 141 124 135 146 145 139 132 126 136 152 138 144 161 167 170 161 150 165
66 25 328 243 297 303 120 63 345 331 317 305 319 326 359 30 13 18 28 342 257 62 40 26 253 238 238 267 244 197 210 218 200 207 201 168 163 190 225 236 240 253 254 252 261 275 260 220 184 178 192 191 196 206 211 214 215 219 231 231 216 224 248 227 216 225 242 254 165 147 127 106 119 134 135 129 124 126 145 149 132 159 178 170 173 172 160 149
54 6 248 261 309 103 102 335 288 276 280 253 71 6 358 19 5 9 359 348 325 197 28 45 229 230 205 237 228 202 214 210 200 204 166 165 201 238 204 212 221 256 265 241 235 256 254 216 192 180 189 204 207 199 200 205 206 211 216 220 215 210 220 238 218 215 233 254 181 146 124 111 124 129 129 126 123 125 118 103 112 157 164 139 167 179 177 166
50 40 268 283 287 119 16 309 287 296 298 274 46 17 20 9 354 347 313 338 343 248 295 301 262 287 168 192 197 210 224 195 180 196 150 150 157 100 175 204 228 266 264 243 239 255 260 232 234 209 195 209 197 181 190 198 205 223 215 212 214 208 211 222 226 224 227 208 123 135 132 124 140 139 133 131 123 114 99 96 107 126 108 98 129 166 180 184
39 356 315 297 230 125 335 305 283 343 342 335 305 287 357 8 5 8 7 342 337 323 285 257 289 5 34 133 179 201 216 159 129 138 118 128 150 105 115 164 218 300 264 262 262 243 238 245 261 254 184 200 180 177 206 215 234 237 203 202 214 213 214 224 263 301 242 136 114 126 131 137 151 148 141 139 127 115 105 105 105 78 108 112 112 133 158 181
64 333 331 348 102 79 333 316 336 4 9 7 331 285 331 327 353 12 21 19 7 7 11 42 85 349 15 84 174 208 175 153 166 230 134 145 223 257 232 174 76 3 251 251 359 114 222 248 254 243 205 201 191 194 216 219 233 222 198 199 218 220 235 265 303 334 295 218 137 129 124 144 156 151 143 140 133 129 126 121 112 81 85 100 112 127 136 152
71 34 330 337 29 31 342 358 36 16 21 36 48 40 1 328 317 313 348 353 350 5 5 13 54 331 351 208 248 311 137 169 203 223 197 150 216 262 247 203 201 229 211 207 122 103 289 284 254 236 240 208 193 246 224 209 214 217 208 212 226 233 268 303 302 306 283 283 118 123 132 143 152 152 145 144 142 139 136 137 132 114 103 90 91 115 124 131
31 359 338 331 22 36 47 40 16 351 13 61 44 21 350 356 344 312 266 321 323 345 345 355 356 285 254 227 234 214 207 217 194 197 210 192 178 216 234 213 218 222 222 223 213 196 344 310 244 230 303 16 20 341 285 195 204 217 220 222 231 242 251 267 282 290 322 30 85 129 151 151 153 155 149 146 145 140 134 133 125 107 103 96 88 101 111 118
11 332 317 26 57 33 23 36 8 6 32 31 31 13 347 359 4 5 12 326 312 288 296 319 321 295 287 247 237 208 203 216 198 205 217 180 152 216 223 230 242 230 227 242 240 254 317 282 232 216 241 254 10 350 207 236 257 224 213 215 225 238 252 255 247 249 313 41 101 152 165 155 155 157 153 150 146 140 138 134 119 105 102 94 90 95 98 110
7 342 302 247 41 5 359 39 33 32 37 32 42 19 2 9 10 13 17 352 336 268 283 313 293 291 344 326 264 219 184 206 202 195 187 166 174 239 211 161 275 229 194 282 271 250 258 266 251 216 217 224 267 292 233 299 332 216 182 185 217 228 243 253 248 253 285 20 136 160 161 152 151 154 154 154 150 146 143 136 127 124 119 108 102 95 91 106
39 55 53 61 26 353 345 29 45 54 48 60 82 41 22 36 30 18 24 11 3 251 263 340 312 276 337 328 294 284 230 177 140 165 172 189 232 212 192 167 233 234 203 292 316 247 230 262 280 245 243 236 236 257 242 255 332 42 146 154 203 226 237 243 249 255 262 117 145 156 152 147 149 152 151 152 154 154 148 140 138 138 128 117 113 100 90 108
122 127 127 114 63 349 358 14 10 71 47 60 78 48 27 34 38 49 39 23 29 33 314 324 283 331 348 331 275 239 156 119 59 124 181 270 290 232 235 148 128 61 251 240 307 263 227 253 298 273 283 271 235 233 238 245 282 283 229 226 230 241 248 235 238 244 205 137 149 153 146 144 151 152 154 159 161 156 149 144 135 129 126 118 120 119 110 118
157 152 145 126 82 354 34 26 313 168 70 65 64 52 44 16 18 58 12 0 34 48 33 19 299 272 314 90 126 108 121 135 78 69 150 160 343 220 209 183 165 23 335 273 269 248 234 261 289 262 267 267 241 223 229 240 255 258 251 245 232 232 239 231 225 227 191 155 157 154 148 152 157 153 153 161 162 153 151 153 140 132 136 130 107 133 140 136
159 158 151 126 79 355 286 43 32 66 69 64 43 45 51 24 15 92 33 358 6 8 29 26 331 264 257 185 180 174 173 182 187 164 167 189 231 207 204 218 229 237 314 314 276 252 253 268 274 257 253 258 246 227 228 235 241 248 247 239 230 224 227 228 219 213 201 182 173 163 158 159 158 154 152 153 154 152 156 170 168 157 153 151 141 139 157 154